Torna al catalogo

STARLINK-31744

AttivoComunicazioniVLEO
NORAD 59494·PAYLOAD·🇺🇸 United States

Lanciato Apr 13, 2024 da Cape Canaveral Space Force Station

Loading…

Prossimi Passaggi (prossime 24 ore)

TLE

AggiornatoSource: CelesTrak SupGP

Epoca: Sep 14, 2026, 21:33 UTC

1 59494C 24071L   26257.89840278  .00002547  00000+0  92281-4 0  2573
2 59494  43.0014 358.8562 0001544 279.4063  93.7387 15.27566914    11

Traccia STARLINK-31744 in tempo reale con AllMySat

Download on the App Store